Showing default

ASTRO H, 41337

Orbit data source: Space-Track

ASTRO H, 41337 is a Japanese payload satellite in LEO that was launched on Wed, 17 Feb 2016 UTC via an H-IIA 202 launch vehicle from the Tanegashima Space Center (TNSTA). Payloads include a variety of satellites, spacecraft, and rockets equipped with specific instruments for various scientific and technological missions. These include communications satellites like Starlink; space stations such as the ISS; scientific satellites like the Hubble; Earth observation satellites from companies like Planet Labs, Umbra, and HawkEye 360; GPS; miniature CubeSats for education and research; and military/defense satellites.

Loading next visibility...
ASTRO H details
Identifier
41337, 2016-012A
Orbit
LEO
Last TLE update9 hours ago
Origin
Flag of JPJAXA/ISASJ (JP / JPN)
ManufacturerTSUK/NECTF
MissionNon-operational Civil Astronomy
Bus & MotorASTRO-H, Unknown motor
Mass2,700 kg wet, 2,700 kg dry
Launch date (UTC)
2016-02-17 (9 years ago)
Launch vehicle
H-IIA 202
Launch site
Tanegashima Space Center (TNSTA)
Object type
Payload
Rocket body
Debris
Shape & HBROct Cyl + 2 Pan + 1 Truss, 14 m
Radar Cross Section16.262 m², Large (>1 m²)

Expand to show TLE details & history

TLE from 9 hours ago
0 ASTRO H
1 41337U 16012A   24361.20771970  .00006536  00000-0  42792-3 0  9994
2 41337  31.0021 298.7074 0010765 253.9962 105.9490 15.06279418485973
Epoch: 2024-12-26T04:59Z
Definitive object data (Epoch: 2024-12-26T04:59:06.982Z)
Latitude0.00003°
Longitude128.73794°
Altitude548.149 km
Speed7.589 km/s
True Right ascension19h 54m 49s
True Declination0° 00' 00"
Sunlit
Object was in daylight at TLE epoch
Visualization TLE readout
Latitude10.55691°
Longitude-71.54107°
Altitude546.403 km
Speed7.592 km/s
Apparent Right ascension04h 20m 00s
Apparent Declination-17° 38' 41"
Sunlit
Object is in full shadow
Visualization observer readout
Local Sidereal Time13:00:11
Azimuth282.44° WNW
Elevation-41.664°
Doppler factor1
Orbital elements
Apogee altitude558.875 km
Perigee altitude543.956 km
Semi-major axis6,929.553 km
Eccentricity0.0010765
Inclination31.0021°
RAAN298.7074°
Arg. of periapsis253.9962°
True anomaly106.06757°
Mean anomaly105.949°
Eccentric anomaly106.00829°
Mean motion3.76258 °/min
BSTAR0.00042792
Orbital period95.68 mins
Loading maneuver chart data...
Loading historical data...
Loading historical data...
Loading historical data...
Loading historical data...
Loading historical data...
Loading historical data...
Loading historical data...

ASTRO H Visibility forecast

Observer location: undefined°, undefined

Span
Click to sort rows by Start time (UTC) header in descending order
Start Az.
Max El. time (UTC)
Max El. Az.
Max El.
End time (UTC)
End Az.
4 mins2024-12-27 00:20:29.178Z198.936° SSW2024-12-27 00:22:29.178Z167.185° S16.248°2024-12-27 00:24:29.178Z134.463° SE
5 mins2024-12-27 02:01:29.178Z214.254° SW2024-12-27 02:03:29.178Z173.196° S21.818°2024-12-27 02:06:29.178Z126.421° SE
4 mins2024-12-27 03:42:29.178Z217.678° SW2024-12-27 03:43:29.178Z200.427° SSW17.026°2024-12-27 03:46:29.178Z152.463° SSE
|